Weather History for Doncaster Sheffield, United Kingdom

Change the Weather History Date:

Wednesday, November 7, 2012

  Actual Average Record
Temperature  
Mean Temperature 50 °F -  
Max Temperature 53 °F - - ()
Min Temperature 46 °F - - ()
Degree Days  
Heating Degree Days 16    
Moisture  
Dew Point 43 °F    
Average Humidity 76    
Maximum Humidity 93    
Minimum Humidity 67    
Precipitation  
Precipitation 0.00 in - - ()
Sea Level Pressure  
Sea Level Pressure 30.13 in    
Wind  
Wind Speed 13 mph ()    
Max Wind Speed 25 mph    
Max Gust Speed -    
Visibility 6.2 miles    
Events      
T = Trace of Precipitation, MM = Missing Value Source: Averaged Metar Reports

Daily Weather History Graph

Daily Weather History Graph

Search for Another Location

Airport:

Trip Planner

Search our weather history database for the weather conditions in past years. The results will help you decide how hot, cold, wet, or windy it might be!

Date:

Astronomy

Nov. 07, 2012 Rise Set
Actual Time 7:15 AM GMT 4:19 PM GMT
Civil Twilight 6:37 AM GMT 4:57 PM GMT
Nautical Twilight 5:55 AM GMT 5:39 PM GMT
Astronomical Twilight 5:14 AM GMT 6:19 PM GMT
Moon No Moon Rise 1:15 PM GMT (11/7)
Length of Visible Light 10h 20m
Length of Day
9h 04m
Last Quarter, 45% of the Moon is Illuminated
Nov 7
Last Quarter
Nov 13
New
Nov 20
First Quarter
Nov 28
Full
Dec 6
Last Quarter

Hourly Weather History & Observations

Time (GMT) Temp. Windchill Dew Point Humidity Pressure Visibility Wind Dir Wind Speed Gust Speed Precip Events Conditions
12:20 AM 48.2 °F - 42.8 °F 82% 30.12 in - West 15.0 mph - N/A   Clear
4:50 AM 48.2 °F - 41.0 °F 76% 30.15 in 6.2 mi West 12.7 mph - N/A   Mostly Cloudy
5:20 AM 48.2 °F - 41.0 °F 76% 30.15 in 6.2 mi West 10.4 mph - N/A   Mostly Cloudy
5:50 AM 48.2 °F - 41.0 °F 76% 30.15 in 6.2 mi West 11.5 mph - N/A   Mostly Cloudy
6:20 AM 48.2 °F - 42.8 °F 82% 30.15 in 6.2 mi West 11.5 mph - N/A   Mostly Cloudy
6:50 AM 48.2 °F - 41.0 °F 76% 30.18 in 6.2 mi WSW 12.7 mph - N/A   Mostly Cloudy
7:20 AM 48.2 °F - 41.0 °F 76% 30.18 in 6.2 mi SW 9.2 mph - N/A   Scattered Clouds
7:50 AM 48.2 °F - 41.0 °F 76% 30.18 in 6.2 mi WSW 8.1 mph - N/A   Mostly Cloudy
8:20 AM 50.0 °F - 42.8 °F 76% 30.18 in 6.2 mi West 8.1 mph - N/A   Mostly Cloudy
8:50 AM 50.0 °F - 42.8 °F 76% 30.18 in 6.2 mi WSW 9.2 mph - N/A   Mostly Cloudy
9:20 AM 50.0 °F - 42.8 °F 76% 30.18 in 6.2 mi WSW 8.1 mph - N/A   Mostly Cloudy
9:50 AM 50.0 °F - 42.8 °F 76% 30.18 in 6.2 mi West 13.8 mph - N/A   Mostly Cloudy
10:20 AM 51.8 °F - 42.8 °F 71% 30.18 in 6.2 mi West 12.7 mph - N/A   Mostly Cloudy
10:50 AM 51.8 °F - 42.8 °F 71% 30.18 in 6.2 mi WSW 11.5 mph - N/A   Mostly Cloudy
11:20 AM 53.6 °F - 44.6 °F 72% 30.18 in 6.2 mi West 19.6 mph - N/A   Mostly Cloudy
11:50 AM 53.6 °F - 42.8 °F 67% 30.18 in 6.2 mi West 20.7 mph - N/A   Scattered Clouds
12:20 PM 53.6 °F - 42.8 °F 67% 30.15 in 6.2 mi West 18.4 mph - N/A   Scattered Clouds
12:50 PM 51.8 °F - 42.8 °F 71% 30.15 in 6.2 mi WSW 24.2 mph - N/A   Scattered Clouds
1:20 PM 51.8 °F - 42.8 °F 71% 30.15 in 6.2 mi West 18.4 mph - N/A   Scattered Clouds
1:50 PM 51.8 °F - 41.0 °F 67% 30.15 in 6.2 mi WSW 15.0 mph - N/A   Mostly Cloudy
2:20 PM 51.8 °F - 41.0 °F 67% 30.15 in 6.2 mi WSW 19.6 mph - N/A   Mostly Cloudy
2:50 PM 51.8 °F - 41.0 °F 67% 30.15 in 6.2 mi WSW 13.8 mph - N/A   Mostly Cloudy
3:20 PM 51.8 °F - 42.8 °F 71% 30.12 in 6.2 mi WSW 17.3 mph - N/A   Mostly Cloudy
3:50 PM 51.8 °F - 42.8 °F 71% 30.12 in 6.2 mi WSW 18.4 mph - N/A   Mostly Cloudy
4:20 PM 51.8 °F - 42.8 °F 71% 30.12 in 6.2 mi WSW 25.3 mph - N/A   Scattered Clouds
4:50 PM 51.8 °F - 42.8 °F 71% 30.12 in 6.2 mi WSW 20.7 mph - N/A   Scattered Clouds
5:20 PM 51.8 °F - 42.8 °F 71% 30.12 in 6.2 mi WSW 19.6 mph - N/A   Mostly Cloudy
5:50 PM 50.0 °F - 42.8 °F 76% 30.12 in 6.2 mi SW 16.1 mph - N/A   Mostly Cloudy
6:20 PM 48.2 °F - 41.0 °F 76% 30.09 in 6.2 mi SW 13.8 mph - N/A   Scattered Clouds
6:50 PM 50.0 °F - 42.8 °F 76% 30.09 in 6.2 mi SW 15.0 mph - N/A   Scattered Clouds
7:20 PM 50.0 °F - 42.8 °F 76% 30.09 in 6.2 mi SW 17.3 mph - N/A   Mostly Cloudy
7:50 PM 50.0 °F - 42.8 °F 76% 30.09 in 6.2 mi SSW 17.3 mph - N/A   Scattered Clouds
8:20 PM 50.0 °F - 42.8 °F 76% 30.06 in 6.2 mi SSW 15.0 mph - N/A   Mostly Cloudy
8:50 PM 48.2 °F - 42.8 °F 82% 30.06 in 6.2 mi South 9.2 mph - N/A   Mostly Cloudy
9:20 PM 46.4 °F 41.1 °F 42.8 °F 87% 30.06 in 6.2 mi South 11.5 mph - N/A   Partly Cloudy
9:50 PM 48.2 °F - 42.8 °F 82% 30.06 in - SSW 12.7 mph - N/A   Clear
10:20 PM 50.0 °F - 44.6 °F 82% 30.04 in - SSW 11.5 mph - N/A   Clear
10:50 PM 48.2 °F - 44.6 °F 87% 30.04 in 6.2 mi SSW 9.2 mph - N/A   Partly Cloudy
11:20 PM 50.0 °F - 46.4 °F 87% 30.04 in 6.2 mi SW 9.2 mph - N/A   Scattered Clouds
11:50 PM 48.2 °F - 46.4 °F 93% 30.04 in 6.2 mi SW 11.5 mph - N/A   Mostly Cloudy